Location: Unspecified
(0.0000°N, 0.0000°E)
Time: 13:28:50
(UTC+00:00)

LAPAN A2 - Visible Passes

Search period start: 04 December 2023 00:00
Search period end: 14 December 2023 00:00
Orbit: 628 x 646 km, 6.0° (Epoch: 03 December)

Date Brightness Start Highest point End Pass type
(mag) Time Alt. Az. Time Alt. Az. Time Alt. Az.
04 Dec ? 04:18:34 54° W 04:19:38 84° S 04:24:20 10° E visible
04 Dec ? 18:10:12 10° W 18:14:53 54° N 18:19:34 10° ENE visible
04 Dec ? 19:54:47 10° WNW 19:57:20 28° NW 19:57:20 28° NW visible
05 Dec ? 03:01:25 11° E 03:01:25 11° E 03:01:41 10° E visible
05 Dec ? 04:38:46 26° W 04:41:20 70° S 04:46:01 10° ESE visible
05 Dec ? 18:32:00 10° WNW 18:36:37 47° N 18:40:13 16° ENE visible
05 Dec ? 20:16:35 10° WNW 20:17:34 15° WNW 20:17:34 15° WNW visible
06 Dec ? 03:21:37 23° E 03:21:37 23° E 03:23:24 10° E visible
06 Dec ? 04:58:58 13° W 05:03:04 58° S 05:07:40 10° ESE visible
06 Dec ? 18:53:49 10° WNW 18:58:22 42° N 19:00:28 27° NE visible
07 Dec ? 03:41:48 43° ESE 03:41:48 43° ESE 03:45:05 10° ESE visible
07 Dec ? 05:20:15 10° W 05:24:47 49° S 05:29:20 10° ESE visible
07 Dec ? 19:15:37 10° WNW 19:20:06 40° N 19:20:43 38° NNE visible
08 Dec ? 04:02:00 57° SSW 04:02:08 57° S 04:06:44 10° ESE visible
08 Dec ? 19:37:22 10° WNW 19:40:59 36° NNW 19:40:59 36° NNW visible
09 Dec ? 04:22:12 33° WSW 04:23:51 49° S 04:28:23 10° ESE visible
09 Dec ? 18:14:38 10° WNW 18:19:08 40° N 18:23:38 10° ENE visible
09 Dec ? 19:59:05 10° WNW 20:01:16 24° NW 20:01:16 24° NW visible
10 Dec ? 03:05:01 15° ESE 03:05:01 15° ESE 03:05:49 10° ESE visible
10 Dec ? 04:42:23 18° WSW 04:45:35 43° S 04:50:03 10° ESE visible
10 Dec ? 18:36:24 10° WNW 18:40:53 40° N 18:44:13 16° ENE visible
10 Dec ? 20:20:46 10° WNW 20:21:34 14° WNW 20:21:34 14° WNW visible
11 Dec ? 03:25:13 26° ESE 03:25:13 26° ESE 03:27:27 10° ESE visible
11 Dec ? 05:02:54 10° WSW 05:07:19 40° S 05:11:44 10° ESE visible
11 Dec ? 18:58:06 10° WNW 19:02:37 41° N 19:04:31 28° NE visible
12 Dec ? 03:45:26 39° SSE 03:45:26 39° SSE 03:49:06 10° ESE visible
12 Dec ? 05:24:40 10° WSW 05:29:04 39° S 05:33:27 10° ESE visible
12 Dec ? 19:19:47 10° WNW 19:24:21 44° N 19:24:50 43° NNE visible
13 Dec ? 04:05:39 38° SSW 04:06:22 40° S 04:10:47 10° ESE visible
13 Dec ? 19:41:26 10° WNW 19:45:10 44° NNW 19:45:10 44° NNW visible
